Theta_e
328 334 334 335 335 334 336 336 334 330 332 328 325 323 323 324 324 323 324 322 319 319 318 318 318 319 318 313 312 312 309 309 309 313 312 313 313 313 314 316 314 312 313
323 331 334 334 333 334 335 335 333 330 329 329 327 326 325 325 326 322 320 319 319 318 319 321 319 312 309 311 312 311 309 311 308 305 306 305 311 314 314 312 314 313 312
321 326 333 332 333 332 333 334 332 332 330 329 327 325 325 324 322 320 319 318 320 320 320 320 319 311 309 307 310 310 309 307 306 306 306 305 305 305 309 313 312 312 310
320 333 331 331 331 332 335 335 334 332 329 328 326 324 323 323 323 321 320 319 320 320 322 320 319 312 310 311 310 313 309 306 305 306 308 307 306 301 299 307 310 312 310
331 332 331 332 332 335 333 334 334 331 327 327 327 325 322 320 318 317 319 318 317 318 321 321 319 312 310 310 309 308 307 308 309 306 304 304 303 302 298 297 300 305 310
331 332 333 333 332 334 332 331 332 331 328 327 327 325 323 320 317 315 316 316 315 315 317 319 316 314 310 310 308 307 308 311 307 309 304 302 300 299 300 299 301 300 304
329 329 331 332 332 334 334 333 332 332 329 328 327 326 323 321 319 317 315 314 313 313 314 315 314 313 310 310 308 308 308 308 309 307 307 305 303 300 301 301 301 303 305
327 329 329 329 332 332 332 332 330 330 331 330 329 327 325 322 320 319 317 315 316 316 315 315 315 314 312 311 309 308 309 309 307 307 305 304 304 306 302 303 302 302 301
320 326 328 329 330 330 330 331 331 331 332 332 330 327 326 324 322 320 318 317 316 318 317 317 316 314 313 312 311 309 308 308 307 309 304 303 304 306 309 308 307 304 299
319 320 326 329 330 330 331 330 330 329 331 330 329 329 327 325 324 322 320 318 319 318 319 318 316 315 316 316 311 310 309 310 309 307 307 305 305 306 309 305 306 306 305
320 322 323 328 331 331 329 329 328 329 329 331 329 329 327 326 325 324 323 321 320 325 324 322 320 318 317 316 311 310 308 310 308 309 308 307 308 305 308 305 305 308 308
318 322 322 325 329 329 329 330 331 331 332 331 331 329 328 326 326 326 328 327 327 326 324 322 320 319 319 315 313 313 312 312 310 310 308 308 311 306 306 305 308 308 309
314 316 319 322 325 325 328 331 331 333 332 330 330 328 327 325 326 326 324 322 321 320 321 321 320 319 319 317 316 314 313 312 312 311 309 309 309 307 308 306 308 308 310
313 315 315 316 317 320 322 325 328 331 331 330 328 326 326 326 325 324 322 322 321 318 319 317 316 317 318 319 318 315 313 313 314 314 312 312 311 310 309 309 309 308 307
311 314 315 315 316 317 318 320 320 322 328 328 325 324 325 326 324 323 322 325 324 322 321 319 318 318 317 318 317 317 315 314 314 313 314 314 314 315 313 311 309 308 307
313 315 316 317 317 317 316 317 316 316 315 321 326 325 325 326 325 323 323 325 325 324 322 321 321 319 320 314 312 316 316 316 316 315 315 315 316 316 314 314 312 310 307
312 313 312 313 314 314 316 315 316 316 314 320 325 325 324 322 322 324 323 321 321 320 319 319 320 317 319 311 309 311 316 317 316 316 316 313 315 314 312 311 311 311 310
313 313 312 313 314 315 315 316 314 312 315 318 323 323 322 320 321 319 318 317 317 317 319 318 317 316 319 310 307 308 312 314 317 316 314 312 312 312 310 310 309 308 307
312 312 313 313 312 312 312 311 311 311 312 311 312 314 315 314 313 314 315 316 315 315 315 317 317 316 318 310 307 306 311 312 313 313 313 312 312 307 305 309 307 307 307
312 312 313 311 310 311 309 310 309 308 309 310 310 311 312 311 311 311 311 315 314 315 317 316 315 314 316 309 305 307 311 312 312 311 311 308 309 302 302 306 305 302 304
316 313 312 311 311 311 310 309 309 310 312 314 313 314 312 313 313 311 310 311 313 313 312 314 314 314 313 314 304 303 310 311 310 309 308 308 302 300 299 300 305 305 304
312 311 310 309 310 312 311 309 309 312 313 313 314 314 313 314 314 311 311 310 310 309 308 309 310 313 313 306 305 301 300 307 309 308 308 308 300 299 298 298 300 299 300
307 308 308 307 307 308 308 307 308 311 312 310 310 309 310 311 310 305 304 306 308 305 307 308 309 310 311 310 303 301 299 299 307 309 307 303 299 297 298 298 298 298 298
306 307 306 304 301 302 307 308 308 310 310 308 307 306 307 306 305 306 306 304 303 302 303 304 307 308 306 308 309 306 303 300 305 307 306 304 303 301 302 301 299 298 298
302 303 302 301 302 302 302 303 306 308 307 307 307 306 303 302 302 302 302 302 301 302 301 301 303 303 305 306 306 305 305 305 305 306 307 305 304 303 301 299 299 298 296
301 301 300 298 299 300 301 302 303 306 306 304 301 300 299 299 299 299 300 298 297 296 295 294 296 303 300 298 296 297 296 297 298 305 304 303 302 301 299 300 299 297 298
Wind_Speed
5 4 4 5 7 3 8 10 12 7 8 3 4 3 3 2 1 2 3 4 5 5 6 4 3 3 3 2 3 3 2 0 1 3 2 1 3 4 4 3 3 5 5
7 3 5 6 9 8 6 6 7 7 4 4 3 3 2 1 1 1 2 4 5 4 4 5 4 4 1 1 1 1 1 0 1 3 2 1 2 2 5 4 5 6 4
8 4 5 6 6 7 8 7 8 8 5 6 4 4 3 1 2 1 1 2 5 3 4 4 4 3 2 3 2 2 3 3 1 1 4 2 4 0 1 5 4 6 5
4 4 5 7 8 7 8 8 9 7 5 7 5 6 4 3 3 4 3 3 4 5 4 4 3 3 2 3 3 3 3 3 3 1 1 1 3 3 2 2 3 4 5
5 6 7 7 6 6 7 5 6 5 4 5 5 4 3 2 1 2 4 4 3 4 4 4 3 4 3 3 3 3 3 2 3 3 1 1 1 2 3 3 2 2 2
6 6 3 4 5 5 6 6 7 6 7 6 5 6 6 4 3 2 3 3 2 3 5 5 5 4 4 4 4 3 4 3 3 2 3 3 3 3 2 1 1 1 2
7 5 6 7 7 9 9 7 7 9 8 8 7 7 7 7 7 6 4 4 3 3 6 5 5 4 4 4 4 4 4 5 4 5 3 2 2 2 2 3 2 1 2
8 9 8 6 8 8 7 6 8 9 11 11 11 8 8 5 5 5 4 4 4 4 3 5 5 6 6 5 5 3 4 4 3 5 3 2 2 2 3 3 3 1 2
9 13 11 9 8 8 9 12 12 10 11 11 9 8 7 7 6 6 5 4 5 4 5 5 5 6 6 6 6 4 4 4 4 4 4 2 2 2 2 2 2 3 2
9 8 10 11 9 9 10 8 6 7 7 7 6 5 6 7 6 5 6 6 5 6 6 6 6 6 7 7 6 4 4 5 3 4 5 4 3 3 2 2 2 2 3
9 9 10 9 10 7 6 5 3 5 6 6 5 6 6 6 6 6 6 6 5 6 7 7 7 8 8 7 6 6 6 6 6 5 5 6 4 4 4 3 2 3 3
9 10 7 7 7 7 6 8 8 7 7 6 6 7 5 5 6 6 6 6 7 6 6 6 6 7 8 7 7 9 7 7 6 7 5 6 4 5 5 4 4 3 3
9 8 6 4 4 3 4 4 4 6 5 4 5 5 6 5 6 6 6 5 5 4 4 4 5 6 8 8 8 7 7 7 8 7 7 7 6 6 4 4 4 3 3
3 7 7 6 6 6 6 3 2 5 4 3 5 5 6 7 7 6 5 5 5 5 5 5 5 6 6 7 8 8 7 8 8 8 9 6 7 8 6 4 5 4 4
8 8 7 8 7 7 6 4 4 3 2 4 4 5 5 5 4 5 5 5 5 5 5 5 5 5 5 5 6 6 8 8 8 7 8 8 11 12 9 6 5 5 3
8 10 9 8 8 5 5 4 5 6 4 5 7 5 5 4 6 5 5 4 5 6 6 7 6 6 5 9 10 9 8 10 10 10 9 9 15 14 16 15 10 7 5
6 7 7 7 5 3 3 1 3 4 6 4 1 2 2 4 3 3 4 5 6 4 6 6 5 7 7 11 12 13 8 9 9 10 8 7 7 10 10 9 9 11 12
6 6 5 3 3 2 2 3 5 3 3 2 1 1 0 2 5 4 2 3 3 4 5 5 6 6 7 10 11 10 6 6 9 9 9 10 10 11 10 7 6 6 6
3 3 2 0 1 3 4 5 7 4 5 6 6 6 7 8 7 7 7 5 4 4 4 5 6 6 8 10 10 3 4 5 7 7 8 9 10 10 11 7 6 6 6
1 2 2 3 4 3 4 5 3 5 5 5 4 4 6 7 11 9 7 4 2 5 5 7 6 8 8 8 8 6 3 5 5 5 6 11 10 13 12 7 6 6 5
4 3 3 4 3 2 4 3 2 2 1 1 4 3 2 4 4 4 4 5 6 6 6 6 7 7 7 7 9 9 4 4 4 5 4 5 10 11 11 9 6 7 3
4 3 3 2 2 2 2 0 2 4 4 4 5 5 5 4 5 6 6 8 6 6 6 6 8 6 6 8 7 8 10 6 6 6 5 5 11 9 9 7 9 10 6
3 2 3 2 3 4 2 3 5 3 4 5 6 5 6 6 6 5 6 7 7 4 7 6 6 7 4 3 8 6 8 8 6 3 6 8 11 8 5 8 7 6 4
3 3 4 4 4 3 3 4 6 4 4 5 6 5 5 7 6 5 4 4 5 5 4 5 6 5 4 3 4 4 3 7 7 4 4 5 6 5 4 4 4 4 4
4 5 6 6 6 4 4 5 5 4 4 4 5 6 4 6 6 6 5 5 6 5 5 4 4 4 7 5 9 8 6 6 6 5 3 2 2 2 2 3 4 4 4
5 5 5 5 7 6 6 4 3 3 3 3 3 5 4 5 5 5 7 9 11 9 13 13 9 4 12 11 8 9 7 9 11 3 3 3 3 3 3 4 4 3 6
Wind_Direction
251 156 184 145 137 135 122 151 149 132 131 134 123 116 185 174 96 102 125 113 126 143 136 115 94 26 90 176 161 138 158 285 138 99 58 233 219 218 235 213 206 212 200
278 321 121 159 166 159 141 149 133 139 150 131 159 117 116 71 58 110 104 127 136 146 138 126 87 68 28 304 65 121 126 264 199 138 108 204 308 247 229 218 211 223 207
260 206 157 165 162 146 146 137 150 171 166 120 100 82 86 31 98 204 151 197 157 163 149 150 125 124 158 229 212 159 159 194 292 254 146 109 225 300 221 211 210 214 208
259 243 165 160 178 157 144 150 168 183 147 141 163 161 170 181 200 185 174 186 209 174 181 173 140 179 200 225 212 171 164 145 198 322 28 95 146 179 313 324 241 198 209
215 204 201 183 182 146 161 149 140 152 145 168 177 167 178 216 187 159 179 186 187 206 207 199 181 188 203 207 198 184 177 176 167 176 162 106 84 111 130 255 303 327 280
191 225 181 144 140 124 130 150 160 176 167 180 198 195 203 204 191 205 210 215 207 226 228 216 215 212 207 207 205 189 179 189 168 151 158 176 164 194 147 195 281 239 290
194 189 184 175 169 171 174 183 179 192 182 190 196 204 205 198 201 191 196 192 227 233 230 218 223 221 217 209 201 198 193 184 177 181 193 158 163 149 152 120 233 256 289
191 189 194 186 172 183 181 170 182 197 192 192 201 200 200 196 200 195 186 205 210 217 219 227 222 222 218 213 204 202 206 190 181 179 196 162 176 159 167 171 154 224 326
196 198 183 182 179 184 192 192 200 203 199 204 208 203 190 196 204 204 194 200 204 223 225 219 222 226 218 211 197 210 213 173 198 210 173 177 221 182 188 169 148 155 200
192 219 184 184 189 197 199 202 207 215 216 211 206 215 208 196 196 188 206 209 219 212 219 217 210 219 218 210 194 200 209 208 202 193 182 183 189 197 165 148 147 144 146
201 207 215 182 191 196 192 202 177 210 228 220 231 223 214 213 207 199 198 202 209 218 214 221 217 210 212 213 198 207 208 213 209 207 199 203 193 194 199 171 187 168 152
206 211 223 170 185 192 180 192 208 211 222 220 200 218 226 211 221 216 209 191 212 205 214 207 213 216 215 207 206 215 208 210 211 210 207 218 189 206 204 184 193 188 178
200 195 172 181 184 180 200 229 235 230 221 216 234 247 219 202 221 217 206 214 224 228 232 222 218 214 215 213 216 215 211 210 218 213 210 213 198 211 201 194 194 178 159
100 101 95 82 78 84 89 93 185 189 202 187 206 232 241 200 209 220 224 231 215 217 225 234 239 233 226 226 215 212 218 227 223 216 224 218 206 205 192 198 205 174 157
98 116 117 104 97 88 79 76 60 50 192 226 214 245 255 267 244 233 233 226 214 215 219 221 233 235 227 229 215 219 229 229 235 221 216 220 222 190 188 201 200 170 192
98 119 116 113 109 119 102 63 24 331 318 239 218 225 265 281 264 258 249 230 223 218 213 210 213 225 229 233 230 230 229 235 232 235 229 217 215 200 193 189 180 178 198
93 101 98 108 131 139 96 37 306 306 302 257 223 221 228 261 268 256 238 252 255 263 249 251 234 237 228 223 231 230 239 245 237 237 229 215 216 194 188 192 218 234 229
89 89 94 51 54 22 335 282 286 320 356 42 149 234 222 298 299 293 274 295 288 265 270 269 263 254 254 235 233 234 229 238 247 240 221 207 200 191 184 182 204 220 221
107 136 147 178 354 25 352 7 10 20 41 28 22 20 15 356 344 345 332 304 285 282 274 268 272 254 261 255 240 211 242 247 248 231 216 204 202 186 164 185 201 226 240
121 117 50 33 56 14 63 72 53 66 39 27 63 90 91 49 355 343 326 297 294 295 292 284 263 256 263 271 266 232 209 248 254 237 227 205 186 172 179 194 205 224 235
162 139 125 152 161 81 128 128 77 81 216 80 307 343 16 90 153 274 316 307 314 306 291 280 277 264 237 250 235 225 225 217 230 219 203 195 183 181 186 192 204 221 199
180 183 160 193 237 309 16 317 278 232 243 261 274 285 294 279 262 260 278 281 271 269 277 287 294 273 251 232 254 230 218 227 226 212 199 198 182 195 207 198 219 235 221
185 163 174 206 287 295 269 283 270 285 303 312 312 311 311 304 300 304 290 289 299 315 297 283 283 286 285 233 226 218 245 234 240 206 194 180 183 190 202 209 224 201 189
199 193 183 205 244 252 265 251 298 290 276 288 292 305 309 299 299 297 274 259 263 263 267 285 281 280 268 238 226 207 189 231 225 206 194 163 143 148 219 229 210 190 198
209 201 206 220 247 268 260 252 253 219 244 263 278 282 267 286 288 278 270 280 256 223 248 238 251 281 284 248 214 200 191 188 202 170 169 152 157 168 239 260 241 222 202
224 225 233 239 255 247 245 243 256 211 217 257 270 262 283 287 283 288 302 252 236 225 252 248 244 260 249 270 228 217 212 200 163 186 170 164 196 217 219 244 257 226 223